| time (UTC) | temp C | wind direction | speed KPH | gust KPH | rain 1hr cm | rain 24hr cm | rain mn cm | humidity % | barometer mb |
| 20260506232013 | 6 | 47 | 1.6 | 4.8 | 0.03 | 1.83 | 1.78 | 95 | 1008.7 |
| 20260506231530 | 6 | 40 | 3.2 | 4.8 | 0.00 | 1.80 | 1.75 | 95 | 1008.7 |
| 20260506231013 | 6 | 37 | 0.0 | 4.8 | 0.00 | 1.80 | 1.75 | 95 | 1008.8 |
| 20260506230517 | 6 | 36 | 0.0 | 6.4 | 0.00 | 1.80 | 1.75 | 95 | 1008.9 |
| 20260506230048 | 6 | 50 | 3.2 | 6.4 | 0.00 | 1.80 | 1.75 | 95 | 1008.7 |
| 20260506225513 | 6 | 59 | 0.0 | 9.7 | 0.00 | 1.80 | 1.75 | 95 | 1008.7 |
| 20260506225013 | 6 | 57 | 4.8 | 9.7 | 0.00 | 1.80 | 1.75 | 95 | 1008.5 |
| 20260506224532 | 6 | 49 | 3.2 | 8.0 | 0.00 | 1.80 | 1.75 | 95 | 1008.5 |
| 20260506224014 | 6 | 52 | 3.2 | 9.7 | 0.00 | 1.80 | 1.75 | 95 | 1008.8 |
| 20260506223513 | 6 | 42 | 3.2 | 14.5 | 0.00 | 1.80 | 1.75 | 95 | 1008.6 |
| 20260506223034 | 6 | 67 | 4.8 | 14.5 | 0.00 | 1.80 | 1.75 | 95 | 1008.6 |
| 20260506222518 | 6 | 22 | 4.8 | 9.7 | 0.00 | 1.80 | 1.75 | 95 | 1008.8 |
| 20260506222014 | 6 | 55 | 3.2 | 12.9 | 0.00 | 1.80 | 1.75 | 95 | 1008.9 |
| 20260506221531 | 6 | 35 | 3.2 | 8.0 | 0.00 | 1.80 | 1.75 | 95 | 1008.9 |
| 20260506221013 | 6 | 61 | 4.8 | 9.7 | 0.00 | 1.80 | 1.75 | 95 | 1008.8 |
| 20260506220513 | 6 | 33 | 3.2 | 9.7 | 0.00 | 1.80 | 1.75 | 95 | 1008.8 |
| 20260506220015 | 6 | 34 | 3.2 | 9.7 | 0.00 | 1.80 | 1.75 | 95 | 1008.8 |
| 20260506215513 | 6 | 82 | 3.2 | 12.9 | 0.00 | 1.80 | 1.75 | 95 | 1009.0 |
| 20260506215014 | 6 | 54 | 4.8 | 17.7 | 0.00 | 1.80 | 1.75 | 95 | 1009.0 |
| 20260506214527 | 6 | 71 | 3.2 | 17.7 | 0.00 | 1.80 | 1.75 | 95 | 1009.0 |
| 20260506214013 | 6 | 56 | 4.8 | 14.5 | 0.00 | 1.80 | 1.75 | 95 | 1008.8 |
| 20260506213517 | 6 | 44 | 8.0 | 19.3 | 0.03 | 1.80 | 1.75 | 95 | 1008.8 |
| 20260506213035 | 6 | 31 | 6.4 | 20.9 | 0.03 | 1.80 | 1.75 | 95 | 1008.6 |
| 20260506212515 | 6 | 42 | 8.0 | 22.5 | 0.03 | 1.80 | 1.75 | 95 | 1008.7 |
| 20260506212016 | 6 | 82 | 6.4 | 22.5 | 0.03 | 1.80 | 1.75 | 95 | 1008.6 |
| 20260506211530 | 6 | 352 | 12.9 | 20.9 | 0.05 | 1.80 | 1.75 | 95 | 1008.7 |
| 20260506211014 | 6 | 44 | 4.8 | 19.3 | 0.05 | 1.80 | 1.75 | 95 | 1008.5 |
| 20260506210520 | 6 | 21 | 9.7 | 20.9 | 0.05 | 1.80 | 1.75 | 95 | 1008.5 |
| 20260506210050 | 6 | 46 | 8.0 | 17.7 | 0.05 | 1.80 | 1.75 | 95 | 1008.4 |
| 20260506205513 | 6 | 71 | 8.0 | 22.5 | 0.05 | 1.83 | 1.75 | 95 | 1008.4 |
| 20260506205016 | 5 | 44 | 8.0 | 22.5 | 0.05 | 1.83 | 1.75 | 95 | 1008.3 |
| 20260506204532 | 5 | 66 | 6.4 | 20.9 | 0.05 | 1.83 | 1.75 | 95 | 1008.3 |
| 20260506204013 | 5 | 26 | 9.7 | 20.9 | 0.05 | 1.83 | 1.75 | 95 | 1008.6 |
| 20260506203514 | 5 | 91 | 8.0 | 16.1 | 0.03 | 1.83 | 1.73 | 95 | 1008.4 |
| 20260506203031 | 5 | 60 | 8.0 | 14.5 | 0.03 | 1.83 | 1.73 | 95 | 1008.5 |
| 20260506202515 | 5 | 50 | 4.8 | 16.1 | 0.03 | 1.83 | 1.73 | 95 | 1008.6 |
| 20260506202011 | 5 | 71 | 4.8 | 16.1 | 0.05 | 1.83 | 1.73 | 95 | 1008.6 |
| 20260506201534 | 5 | 80 | 4.8 | 16.1 | 0.03 | 1.80 | 1.68 | 95 | 1008.6 |
| 20260506201011 | 5 | 62 | 6.4 | 16.1 | 0.03 | 1.80 | 1.68 | 95 | 1008.6 |
| 20260506200514 | 5 | 109 | 6.4 | 14.5 | 0.03 | 1.80 | 1.68 | 95 | 1008.6 |
| 20260506200025 | 6 | 107 | 4.8 | 11.3 | 0.03 | 1.80 | 1.68 | 95 | 1008.7 |
| 20260506195515 | 6 | 123 | 3.2 | 9.7 | 0.03 | 1.80 | 1.68 | 95 | 1008.6 |
| 20260506195011 | 6 | 65 | 3.2 | 14.5 | 0.03 | 1.80 | 1.68 | 95 | 1008.6 |
| 20260506194533 | 6 | 115 | 6.4 | 14.5 | 0.05 | 1.80 | 1.68 | 95 | 1008.6 |
| 20260506194011 | 6 | 58 | 4.8 | 12.9 | 0.05 | 1.80 | 1.68 | 95 | 1008.6 |
| 20260506193511 | 6 | 30 | 4.8 | 14.5 | 0.05 | 1.80 | 1.68 | 95 | 1008.5 |
| 20260506193043 | 6 | 82 | 6.4 | 14.5 | 0.05 | 1.80 | 1.68 | 95 | 1008.5 |
| 20260506192512 | 6 | 104 | 4.8 | 9.7 | 0.05 | 1.80 | 1.68 | 95 | 1008.6 |
| 20260506192014 | 6 | 78 | 3.2 | 17.7 | 0.03 | 1.78 | 1.68 | 95 | 1008.5 |
| 20260506191538 | 6 | 75 | 3.2 | 17.7 | 0.03 | 1.78 | 1.68 | 95 | 1008.5 |
| 20260506191014 | 6 | 57 | 4.8 | 14.5 | 0.03 | 1.78 | 1.68 | 95 | 1008.4 |
| 20260506190512 | 5 | 61 | 4.8 | 17.7 | 0.03 | 1.78 | 1.68 | 95 | 1008.4 |
| 20260506190034 | 6 | 36 | 6.4 | 17.7 | 0.03 | 1.78 | 1.68 | 94 | 1008.4 |
| 20260506185514 | 6 | 80 | 4.8 | 14.5 | 0.03 | 1.91 | 1.68 | 95 | 1008.5 |
| 20260506185012 | 6 | 64 | 4.8 | 14.5 | 0.05 | 1.91 | 1.68 | 95 | 1008.4 |
| 20260506184547 | 6 | 40 | 4.8 | 14.5 | 0.03 | 1.88 | 1.65 | 95 | 1008.5 |
| 20260506184012 | 6 | 21 | 6.4 | 16.1 | 0.03 | 1.88 | 1.65 | 95 | 1008.5 |
| 20260506183517 | 6 | 360 | 6.4 | 16.1 | 0.05 | 1.88 | 1.65 | 95 | 1008.5 |
| 20260506183038 | 6 | 53 | 6.4 | 19.3 | 0.08 | 1.88 | 1.65 | 95 | 1008.6 |
| 20260506182511 | 6 | 30 | 8.0 | 19.3 | 0.08 | 1.88 | 1.65 | 95 | 1008.7 |
| 20260506182012 | 6 | 55 | 6.4 | 17.7 | 0.10 | 1.88 | 1.65 | 95 | 1008.9 |
| 20260506181542 | 6 | 24 | 6.4 | 17.7 | 0.10 | 1.88 | 1.65 | 95 | 1008.9 |
| 20260506181016 | 6 | 25 | 8.0 | 16.1 | 0.10 | 1.88 | 1.65 | 95 | 1008.9 |
| 20260506180514 | 6 | 344 | 6.4 | 16.1 | 0.10 | 1.88 | 1.65 | 95 | 1008.9 |
| 20260506180037 | 6 | 91 | 6.4 | 17.7 | 0.15 | 1.88 | 1.65 | 95 | 1009.1 |
| 20260506175515 | 6 | 71 | 8.0 | 17.7 | 0.10 | 1.83 | 1.63 | 95 | 1008.9 |
| 20260506175015 | 5 | 72 | 3.2 | 17.7 | 0.15 | 1.83 | 1.63 | 95 | 1009.2 |
| 20260506174538 | 5 | 66 | 8.0 | 17.7 | 0.15 | 1.83 | 1.63 | 95 | 1009.2 |
| 20260506174015 | 5 | 77 | 6.4 | 16.1 | 0.15 | 1.83 | 1.60 | 95 | 1009.2 |
| 20260506173515 | 5 | 80 | 9.7 | 17.7 | 0.15 | 1.83 | 1.60 | 94 | 1009.4 |
| 20260506173041 | 5 | 60 | 8.0 | 17.7 | 0.10 | 1.80 | 1.57 | 94 | 1009.5 |
| 20260506172513 | 5 | 90 | 8.0 | 16.1 | 0.10 | 1.80 | 1.57 | 94 | 1009.6 |
| 20260506172015 | 5 | 50 | 9.7 | 17.7 | 0.10 | 1.78 | 1.55 | 94 | 1009.6 |
| 20260506171542 | 5 | 90 | 8.0 | 20.9 | 0.10 | 1.78 | 1.55 | 94 | 1009.5 |
| 20260506171013 | 5 | 70 | 11.3 | 20.9 | 0.10 | 1.75 | 1.50 | 94 | 1009.6 |
| 20260506170515 | 5 | 71 | 9.7 | 19.3 | 0.10 | 1.75 | 1.50 | 94 | 1009.8 |
| 20260506170046 | 5 | 51 | 9.7 | 16.1 | 0.10 | 1.73 | 1.47 | 94 | 1009.6 |
| 20260506165512 | 5 | 46 | 8.0 | 16.1 | 0.10 | 1.68 | 1.47 | 94 | 1009.7 |
| 20260506165012 | 5 | 38 | 8.0 | 17.7 | 0.10 | 1.68 | 1.47 | 94 | 1009.6 |
| 20260506164553 | 5 | 42 | 8.0 | 20.9 | 0.15 | 1.68 | 1.47 | 94 | 1009.6 |
| 20260506164014 | 5 | 78 | 8.0 | 20.9 | 0.10 | 1.68 | 1.45 | 94 | 1009.8 |
| 20260506163512 | 5 | 71 | 8.0 | 20.9 | 0.15 | 1.68 | 1.45 | 94 | 1009.8 |
| 20260506163037 | 5 | 59 | 8.0 | 19.3 | 0.18 | 1.68 | 1.45 | 94 | 1009.9 |
| 20260506162512 | 5 | 62 | 4.8 | 20.9 | 0.15 | 1.65 | 1.42 | 94 | 1009.8 |
| 20260506162015 | 5 | 46 | 9.7 | 19.3 | 0.18 | 1.65 | 1.42 | 94 | 1009.9 |
| 20260506161535 | 5 | 51 | 8.0 | 22.5 | 0.20 | 1.65 | 1.42 | 94 | 1009.9 |
| 20260506161017 | 5 | 43 | 8.0 | 22.5 | 0.20 | 1.63 | 1.40 | 94 | 1010.1 |
| 20260506160515 | 5 | 57 | 9.7 | 20.9 | 0.20 | 1.63 | 1.40 | 94 | 1010.0 |
| 20260506160038 | 5 | 78 | 9.7 | 24.1 | 0.20 | 1.60 | 1.35 | 94 | 1010.0 |
| 20260506155515 | 5 | 77 | 12.9 | 24.1 | 0.23 | 1.60 | 1.35 | 94 | 1009.9 |
| 20260506155010 | 5 | 59 | 11.3 | 20.9 | 0.23 | 1.57 | 1.32 | 94 | 1010.1 |
| 20260506154544 | 5 | 72 | 8.0 | 20.9 | 0.20 | 1.55 | 1.32 | 94 | 1010.3 |
| 20260506154014 | 5 | 348 | 11.3 | 25.7 | 0.20 | 1.50 | 1.30 | 94 | 1010.1 |
| 20260506153514 | 5 | 40 | 11.3 | 20.9 | 0.23 | 1.50 | 1.30 | 94 | 1009.9 |
| 20260506153038 | 5 | 82 | 8.0 | 17.7 | 0.20 | 1.47 | 1.27 | 94 | 1010.1 |
| 20260506152512 | 5 | 101 | 9.7 | 17.7 | 0.20 | 1.47 | 1.22 | 94 | 1010.2 |
| 20260506152015 | 5 | 83 | 4.8 | 19.3 | 0.23 | 1.47 | 1.22 | 94 | 1010.2 |
| 20260506151539 | 5 | 44 | 9.7 | 17.7 | 0.20 | 1.45 | 1.22 | 94 | 1010.0 |
| 20260506151013 | 5 | 106 | 6.4 | 17.7 | 0.20 | 1.42 | 1.19 | 94 | 1010.1 |
| 20260506150514 | 5 | 63 | 6.4 | 17.7 | 0.20 | 1.42 | 1.19 | 94 | 1010.2 |
| 20260506150043 | 5 | 74 | 8.0 | 17.7 | 0.20 | 1.40 | 1.14 | 93 | 1010.2 |
| 20260506145510 | 5 | 96 | 9.7 | 19.3 | 0.18 | 1.35 | 1.14 | 93 | 1010.0 |
| 20260506145017 | 5 | 110 | 9.7 | 19.3 | 0.15 | 1.32 | 1.12 | 93 | 1010.0 |
| 20260506144536 | 6 | 42 | 6.4 | 17.7 | 0.18 | 1.32 | 1.12 | 93 | 1010.0 |
| 20260506144014 | 6 | 86 | 6.4 | 19.3 | 0.15 | 1.32 | 1.07 | 93 | 1009.8 |
| 20260506143517 | 6 | 44 | 9.7 | 19.3 | 0.15 | 1.30 | 1.07 | 93 | 1009.8 |
| 20260506143039 | 6 | 49 | 8.0 | 16.1 | 0.15 | 1.27 | 1.04 | 93 | 1009.6 |
| 20260506142515 | 6 | 49 | 8.0 | 16.1 | 0.15 | 1.27 | 1.04 | 93 | 1009.7 |
| 20260506142013 | 6 | 73 | 6.4 | 19.3 | 0.10 | 1.22 | 0.99 | 93 | 1009.8 |
| 20260506141543 | 6 | 57 | 6.4 | 19.3 | 0.10 | 1.22 | 0.99 | 93 | 1009.6 |
| 20260506141017 | 6 | 52 | 9.7 | 19.3 | 0.10 | 1.22 | 0.99 | 93 | 1009.6 |
| 20260506140515 | 6 | 30 | 8.0 | 17.7 | 0.10 | 1.22 | 0.99 | 93 | 1009.6 |
| 20260506140038 | 6 | 74 | 6.4 | 19.3 | 0.10 | 1.19 | 0.97 | 93 | 1009.7 |
| 20260506135514 | 6 | 50 | 8.0 | 22.5 | 0.10 | 1.19 | 0.97 | 93 | 1009.9 |
| 20260506135014 | 6 | 126 | 6.4 | 22.5 | 0.08 | 1.14 | 0.94 | 93 | 1009.7 |
| 20260506134535 | 6 | 55 | 6.4 | 17.7 | 0.08 | 1.14 | 0.94 | 93 | 1009.8 |
| 20260506134014 | 6 | 47 | 8.0 | 17.7 | 0.08 | 1.14 | 0.91 | 93 | 1009.7 |
| 20260506133516 | 6 | 52 | 8.0 | 17.7 | 0.08 | 1.14 | 0.91 | 93 | 1009.8 |
| 20260506133042 | 6 | 55 | 3.2 | 17.7 | 0.08 | 1.12 | 0.89 | 93 | 1009.9 |
| 20260506132513 | 6 | 55 | 8.0 | 17.7 | 0.08 | 1.12 | 0.89 | 93 | 1009.8 |
| 20260506132014 | 6 | 64 | 9.7 | 17.7 | 0.10 | 1.12 | 0.89 | 93 | 1009.9 |
| 20260506131545 | 6 | 23 | 6.4 | 16.1 | 0.10 | 1.12 | 0.89 | 93 | 1009.7 |
| 20260506131015 | 6 | 48 | 6.4 | 16.1 | 0.15 | 1.12 | 0.89 | 93 | 1009.7 |
| 20260506130515 | 6 | 44 | 4.8 | 19.3 | 0.10 | 1.07 | 0.86 | 93 | 1009.9 |
| 20260506130044 | 6 | 74 | 8.0 | 19.3 | 0.15 | 1.07 | 0.86 | 93 | 1009.7 |
| 20260506125517 | 6 | 78 | 6.4 | 17.7 | 0.18 | 1.07 | 0.86 | 93 | 1009.9 |
| 20260506125012 | 6 | 27 | 9.7 | 17.7 | 0.18 | 1.07 | 0.86 | 93 | 1010.0 |
| 20260506124551 | 6 | 75 | 6.4 | 16.1 | 0.18 | 1.07 | 0.84 | 92 | 1010.2 |
| 20260506124014 | 6 | 105 | 8.0 | 17.7 | 0.18 | 1.07 | 0.84 | 92 | 1010.3 |
| 20260506123514 | 6 | 136 | 6.4 | 17.7 | 0.15 | 1.04 | 0.81 | 92 | 1010.2 |
| 20260506123046 | 6 | 360 | 4.8 | 17.7 | 0.18 | 1.04 | 0.81 | 92 | 1010.1 |
| 20260506122518 | 6 | 81 | 8.0 | 20.9 | 0.18 | 1.04 | 0.81 | 91 | 1010.0 |
| 20260506122003 | 6 | 97 | 8.0 | 19.3 | 0.15 | 0.99 | 0.79 | 91 | 1009.9 |
| 20260506121528 | 7 | 65 | 4.8 | 17.7 | 0.15 | 0.99 | 0.74 | 91 | 1010.2 |
| 20260506121009 | 7 | 15 | 9.7 | 17.7 | 0.10 | 0.97 | 0.74 | 91 | 1010.3 |
| 20260506120509 | 7 | 26 | 3.2 | 14.5 | 0.10 | 0.94 | 0.71 | 91 | 1010.4 |
| 20260506120049 | 7 | 41 | 6.4 | 17.7 | 0.10 | 0.94 | 0.71 | 91 | 1010.2 |
| 20260506115508 | 7 | 22 | 9.7 | 17.7 | 0.08 | 0.91 | 0.66 | 90 | 1010.3 |
| 20260506115009 | 7 | 51 | 8.0 | 16.1 | 0.08 | 0.91 | 0.66 | 89 | 1010.4 |
| 20260506114532 | 7 | 76 | 6.4 | 17.7 | 0.05 | 0.89 | 0.66 | 89 | 1010.6 |
| 20260506114012 | 7 | 40 | 6.4 | 19.3 | 0.08 | 0.89 | 0.66 | 90 | 1010.3 |
| 20260506113511 | 7 | 74 | 8.0 | 20.9 | 0.08 | 0.89 | 0.66 | 90 | 1010.2 |
| 20260506113028 | 7 | 51 | 9.7 | 20.9 | 0.05 | 0.86 | 0.64 | 90 | 1010.2 |
| 20260506112506 | 7 | 34 | 9.7 | 16.1 | 0.05 | 0.86 | 0.64 | 90 | 1010.2 |
| 20260506112010 | 7 | 56 | 8.0 | 16.1 | 0.05 | 0.86 | 0.64 | 91 | 1010.3 |
| 20260506111528 | 7 | 53 | 6.4 | 16.1 | 0.03 | 0.84 | 0.61 | 91 | 1010.3 |
| 20260506111010 | 7 | 37 | 4.8 | 14.5 | 0.03 | 0.84 | 0.61 | 91 | 1010.4 |
| 20260506110511 | 8 | 32 | 4.8 | 16.1 | 0.03 | 0.84 | 0.61 | 91 | 1010.2 |
| 20260506110030 | 7 | 36 | 6.4 | 17.7 | 0.03 | 0.84 | 0.61 | 91 | 1010.0 |
| 20260506105511 | 8 | 49 | 4.8 | 17.7 | 0.03 | 0.84 | 0.61 | 91 | 1009.9 |
| 20260506105011 | 8 | 50 | 6.4 | 16.1 | 0.03 | 0.84 | 0.61 | 91 | 1009.9 |
| 20260506104539 | 7 | 63 | 9.7 | 16.1 | 0.03 | 0.84 | 0.61 | 91 | 1009.6 |
| 20260506104011 | 8 | 33 | 4.8 | 16.1 | 0.00 | 0.81 | 0.56 | 91 | 1009.5 |
| 20260506103508 | 8 | 38 | 8.0 | 16.1 | 0.00 | 0.81 | 0.56 | 91 | 1009.5 |
| 20260506103039 | 8 | 63 | 6.4 | 16.1 | 0.03 | 0.81 | 0.56 | 91 | 1009.9 |
| 20260506102511 | 8 | 82 | 8.0 | 16.1 | 0.10 | 0.81 | 0.56 | 91 | 1010.0 |
| 20260506102011 | 8 | 57 | 8.0 | 16.1 | 0.10 | 0.81 | 0.56 | 91 | 1010.1 |
| 20260506101528 | 8 | 68 | 6.4 | 20.9 | 0.10 | 0.81 | 0.56 | 91 | 1009.6 |
| 20260506101009 | 8 | 103 | 9.7 | 20.9 | 0.10 | 0.81 | 0.56 | 91 | 1009.5 |
| 20260506100511 | 8 | 53 | 9.7 | 22.5 | 0.15 | 0.81 | 0.56 | 91 | 1009.7 |
| 20260506100030 | 8 | 51 | 8.0 | 20.9 | 0.15 | 0.81 | 0.56 | 91 | 1009.6 |
| 20260506095510 | 8 | 50 | 11.3 | 20.9 | 0.15 | 0.81 | 0.56 | 91 | 1009.5 |
| 20260506095008 | 8 | 76 | 9.7 | 17.7 | 0.18 | 0.81 | 0.56 | 92 | 1009.7 |
| 20260506094528 | 9 | 59 | 6.4 | 14.5 | 0.18 | 0.81 | 0.56 | 92 | 1009.9 |
| 20260506094007 | 9 | 63 | 6.4 | 14.5 | 0.18 | 0.81 | 0.56 | 92 | 1010.0 |
| 20260506093509 | 9 | 32 | 6.4 | 17.7 | 0.18 | 0.81 | 0.56 | 92 | 1009.9 |
| 20260506093028 | 9 | 40 | 4.8 | 16.1 | 0.20 | 0.79 | 0.56 | 92 | 1009.0 |
| 20260506092508 | 9 | 60 | 4.8 | 17.7 | 0.10 | 0.66 | 0.46 | 93 | 1010.1 |
| 20260506092010 | 10 | 57 | 8.0 | 17.7 | 0.10 | 0.66 | 0.46 | 93 | 1009.9 |
| 20260506091529 | 10 | 34 | 8.0 | 17.7 | 0.10 | 0.66 | 0.46 | 93 | 1009.5 |
| 20260506091006 | 10 | 61 | 6.4 | 14.5 | 0.15 | 0.66 | 0.46 | 93 | 1009.5 |
| 20260506090510 | 10 | 62 | 4.8 | 9.7 | 0.20 | 0.66 | 0.43 | 93 | 1009.4 |
| 20260506090030 | 10 | 38 | 4.8 | 9.7 | 0.20 | 0.66 | 0.43 | 93 | 1010.1 |
| 20260506085507 | 10 | 65 | 3.2 | 9.7 | 0.20 | 0.66 | 0.43 | 93 | 1009.5 |
| 20260506085011 | 10 | 19 | 4.8 | 12.9 | 0.18 | 0.64 | 0.41 | 93 | 1010.2 |
| 20260506084606 | 10 | 44 | 4.8 | 12.9 | 0.18 | 0.64 | 0.41 | 92 | 1009.5 |
| 20260506084012 | 10 | 39 | 6.4 | 11.3 | 0.18 | 0.64 | 0.41 | 92 | 1009.5 |
| 20260506083508 | 10 | 49 | 4.8 | 11.3 | 0.23 | 0.64 | 0.41 | 92 | 1009.8 |
| 20260506083029 | 10 | 96 | 4.8 | 9.7 | 0.28 | 0.56 | 0.36 | 92 | 1010.0 |
| 20260506082511 | 10 | 101 | 3.2 | 9.7 | 0.28 | 0.56 | 0.36 | 92 | 1009.5 |
| 20260506082011 | 10 | 44 | 3.2 | 12.9 | 0.23 | 0.56 | 0.33 | 92 | 1009.5 |
| 20260506081537 | 10 | 66 | 4.8 | 12.9 | 0.23 | 0.56 | 0.33 | 92 | 1009.7 |
| 20260506081011 | 10 | 61 | 3.2 | 11.3 | 0.23 | 0.53 | 0.30 | 92 | 1009.5 |
| 20260506080511 | 10 | 92 | 3.2 | 11.3 | 0.15 | 0.46 | 0.23 | 91 | 1009.6 |
| 20260506073508 | 11 | 352 | 4.8 | 16.1 | 0.05 | 0.36 | 0.10 | 90 | 1009.3 |
| 20260506073028 | 11 | 45 | 4.8 | 14.5 | 0.00 | 0.30 | 0.08 | 90 | 1010.2 |
| 20260506072508 | 11 | 45 | 6.4 | 14.5 | 0.00 | 0.30 | 0.08 | 90 | 1009.2 |
| 20260506072010 | 11 | 52 | 6.4 | 14.5 | 0.00 | 0.30 | 0.08 | 90 | 1009.2 |
| 20260506071528 | 11 | 58 | 4.8 | 14.5 | 0.00 | 0.30 | 0.08 | 90 | 1009.2 |
| 20260506071010 | 11 | 28 | 6.4 | 16.1 | 0.00 | 0.30 | 0.08 | 90 | 1009.3 |
| 20260506070510 | 11 | 63 | 8.0 | 17.7 | 0.00 | 0.30 | 0.08 | 91 | 1009.3 |
| 20260506062502 | 11 | 30 | 4.8 | 14.5 | 0.03 | 0.30 | 0.08 | 94 | 1008.9 |
| 20260506062011 | 11 | 31 | 6.4 | 14.5 | 0.03 | 0.30 | 0.08 | 94 | 1009.1 |
| 20260506061528 | 10 | 45 | 6.4 | 14.5 | 0.03 | 0.30 | 0.08 | 94 | 1009.1 |
| 20260506061009 | 10 | 52 | 6.4 | 14.5 | 0.03 | 0.30 | 0.08 | 93 | 1009.0 |
| 20260506060510 | 10 | 54 | 6.4 | 12.9 | 0.03 | 0.30 | 0.08 | 92 | 1009.0 |
| 20260506051013 | 12 | 154 | 1.6 | 3.2 | 0.05 | 0.28 | 0.05 | 92 | 1009.4 |
| 20260506050511 | 12 | 154 | 0.0 | 6.4 | 0.05 | 0.28 | 0.05 | 92 | 1009.4 |
| 20260506045010 | 12 | 144 | 0.0 | 8.0 | 0.05 | 0.23 | 0.03 | 91 | 1009.7 |
| 20260506044537 | 12 | 251 | 1.6 | 8.0 | 0.05 | 0.23 | 0.03 | 90 | 1009.5 |
| 20260506044009 | 12 | 154 | 3.2 | 9.7 | 0.05 | 0.23 | 0.03 | 90 | 1009.2 |
| 20260506043511 | 12 | 312 | 1.6 | 11.3 | 0.05 | 0.23 | 0.03 | 90 | 1009.3 |
| 20260506043030 | 12 | 137 | 4.8 | 14.5 | 0.03 | 0.23 | 0.00 | 90 | 1008.7 |
| 20260506042509 | 12 | 133 | 4.8 | 11.3 | 0.03 | 0.23 | 0.00 | 90 | 1008.7 |
| 20260506042011 | 12 | 108 | 3.2 | 14.5 | 0.03 | 0.23 | 0.00 | 90 | 1008.7 |
| 20260506041531 | 12 | 84 | 4.8 | 12.9 | 0.03 | 0.23 | 0.00 | 90 | 1008.6 |
| 20260506041009 | 12 | 130 | 1.6 | 8.0 | 0.03 | 0.23 | 0.00 | 89 | 1008.7 |
| 20260506040509 | 12 | 125 | 1.6 | 8.0 | 0.03 | 0.23 | 0.00 | 89 | 1008.6 |
| 20260506040035 | 12 | 139 | 1.6 | 8.0 | 0.03 | 0.23 | 0.00 | 88 | 1008.7 |
| 20260506035509 | 12 | 94 | 1.6 | 8.0 | 0.03 | 0.20 | 0.20 | 86 | 1008.7 |
| 20260506035010 | 13 | 78 | 0.0 | 8.0 | 0.03 | 0.20 | 0.20 | 86 | 1008.8 |
| 20260506034532 | 13 | 91 | 1.6 | 9.7 | 0.03 | 0.20 | 0.20 | 84 | 1008.9 |
| 20260506034010 | 13 | 92 | 3.2 | 9.7 | 0.03 | 0.20 | 0.20 | 84 | 1008.6 |
| 20260506033511 | 13 | 165 | 1.6 | 3.2 | 0.03 | 0.20 | 0.20 | 83 | 1008.8 |
| 20260506033027 | 13 | 124 | 0.0 | 4.8 | 0.03 | 0.20 | 0.20 | 84 | 1008.6 |
| 20260506032510 | 13 | 124 | 0.0 | 4.8 | 0.03 | 0.20 | 0.20 | 83 | 1008.6 |
| 20260506032011 | 13 | 125 | 0.0 | 4.8 | 0.03 | 0.20 | 0.20 | 81 | 1008.5 |
| 20260506031539 | 13 | 125 | 0.0 | 4.8 | 0.03 | 0.20 | 0.20 | 81 | 1008.3 |
| 20260506031011 | 13 | 124 | 0.0 | 6.4 | 0.03 | 0.20 | 0.20 | 81 | 1008.3 |
| 20260506030512 | 13 | 126 | 0.0 | 6.4 | 0.03 | 0.20 | 0.20 | 81 | 1008.3 |
| 20260506030030 | 13 | 82 | 1.6 | 6.4 | 0.03 | 0.20 | 0.20 | 79 | 1008.5 |
| 20260506025510 | 13 | 82 | 4.8 | 6.4 | 0.00 | 0.18 | 0.18 | 80 | 1008.4 |
| 20260506025012 | 14 | 239 | 0.0 | 3.2 | 0.00 | 0.18 | 0.18 | 78 | 1008.6 |
| 20260506024531 | 14 | 113 | 0.0 | 3.2 | 0.00 | 0.18 | 0.18 | 75 | 1008.2 |
| 20260506024010 | 15 | 113 | 0.0 | 9.7 | 0.00 | 0.18 | 0.18 | 75 | 1008.2 |
| 20260506023512 | 15 | 140 | 1.6 | 12.9 | 0.00 | 0.18 | 0.18 | 73 | 1007.8 |
| 20260506023051 | 15 | 128 | 1.6 | 19.3 | 0.00 | 0.18 | 0.18 | 73 | 1007.8 |
| 20260506022509 | 15 | 32 | 4.8 | 20.9 | 0.00 | 0.18 | 0.18 | 76 | 1008.0 |
| 20260506022017 | 15 | 71 | 6.4 | 20.9 | 0.00 | 0.18 | 0.18 | 80 | 1008.0 |
| 20260506021557 | 15 | 46 | 4.8 | 9.7 | 0.00 | 0.18 | 0.18 | 83 | 1008.0 |
| 20260506021016 | 15 | 24 | 0.0 | 8.0 | 0.00 | 0.18 | 0.18 | 84 | 1007.8 |
| 20260506020512 | 14 | 319 | 3.2 | 8.0 | 0.00 | 0.18 | 0.18 | 84 | 1007.6 |
| 20260506020003 | 14 | 142 | 1.6 | 3.2 | 0.00 | 0.18 | 0.18 | 84 | 1007.2 |
| 20260506015512 | 14 | 209 | 0.0 | 3.2 | 0.00 | 0.18 | 0.18 | 84 | 1007.2 |
| 20260506015012 | 14 | 238 | 1.6 | 3.2 | 0.00 | 0.18 | 0.18 | 83 | 1007.0 |
| 20260506014529 | 14 | 238 | 0.0 | 3.2 | 0.00 | 0.18 | 0.18 | 83 | 1006.9 |
| 20260506014012 | 14 | 240 | 1.6 | 9.7 | 0.00 | 0.18 | 0.18 | 83 | 1007.1 |
| 20260506013513 | 13 | 240 | 6.4 | 9.7 | 0.00 | 0.18 | 0.18 | 85 | 1007.2 |
| 20260506013033 | 13 | 213 | 3.2 | 12.9 | 0.00 | 0.18 | 0.18 | 84 | 1007.2 |
| 20260506012512 | 13 | 248 | 4.8 | 14.5 | 0.00 | 0.18 | 0.18 | 83 | 1007.1 |
| 20260506012011 | 13 | 236 | 3.2 | 14.5 | 0.00 | 0.18 | 0.18 | 83 | 1007.2 |
| 20260506011530 | 13 | 325 | 4.8 | 11.3 | 0.00 | 0.18 | 0.18 | 83 | 1007.0 |
| 20260506011013 | 13 | 229 | 3.2 | 9.7 | 0.00 | 0.18 | 0.18 | 83 | 1006.6 |
| 20260506010509 | 13 | 209 | 1.6 | 6.4 | 0.00 | 0.18 | 0.18 | 82 | 1006.2 |
| 20260506010035 | 14 | 229 | 0.0 | 4.8 | 0.00 | 0.18 | 0.18 | 82 | 1006.1 |
| 20260506005513 | 15 | 178 | 1.6 | 4.8 | 0.00 | 0.18 | 0.18 | 82 | 1006.3 |
| 20260506005014 | 15 | 175 | 0.0 | 4.8 | 0.00 | 0.18 | 0.18 | 82 | 1006.0 |
| 20260506004530 | 15 | 208 | 0.0 | 4.8 | 0.00 | 0.18 | 0.18 | 81 | 1006.2 |
| 20260506004004 | 15 | 209 | 1.6 | 6.4 | 0.00 | 0.18 | 0.18 | 80 | 1006.3 |
| 20260506003517 | 15 | 210 | 3.2 | 6.4 | 0.00 | 0.18 | 0.18 | 80 | 1006.2 |
| 20260506003032 | 15 | 206 | 1.6 | 6.4 | 0.00 | 0.18 | 0.18 | 80 | 1006.0 |
| 20260506002512 | 15 | 248 | 3.2 | 6.4 | 0.00 | 0.18 | 0.18 | 80 | 1006.1 |
| 20260506002012 | 16 | 246 | 1.6 | 6.4 | 0.00 | 0.18 | 0.18 | 80 | 1005.9 |
| 20260506001531 | 15 | 201 | 3.2 | 12.9 | 0.00 | 0.18 | 0.18 | 80 | 1005.9 |
| 20260506001013 | 15 | 238 | 6.4 | 11.3 | 0.00 | 0.18 | 0.18 | 81 | 1005.8 |
| 20260506000512 | 15 | 170 | 0.0 | 12.9 | 0.00 | 0.18 | 0.18 | 80 | 1005.8 |
| 20260506000029 | 15 | 206 | 8.0 | 12.9 | 0.00 | 0.18 | 0.18 | 80 | 1005.8 |
| 20260505235513 | 15 | 236 | 3.2 | 11.3 | 0.00 | 0.18 | 0.18 | 78 | 1005.7 |
| 20260505235013 | 16 | 248 | 4.8 | 12.9 | 0.00 | 0.18 | 0.18 | 79 | 1005.5 |
| 20260505234533 | 16 | 225 | 4.8 | 9.7 | 0.00 | 0.18 | 0.18 | 79 | 1005.5 |
| 20260505234010 | 16 | 236 | 4.8 | 12.9 | 0.00 | 0.18 | 0.18 | 78 | 1005.5 |
| 20260505233514 | 16 | 227 | 6.4 | 16.1 | 0.00 | 0.18 | 0.18 | 77 | 1005.6 |
| 20260505233030 | 16 | 229 | 8.0 | 16.1 | 0.00 | 0.18 | 0.18 | 78 | 1005.6 |
| 20260505232512 | 16 | 248 | 8.0 | 14.5 | 0.00 | 0.18 | 0.18 | 79 | 1005.7 |